Indianapolis, IN

6:59 AM EDT on April 20, 2018 (GMT -0400)
Indianapolis International

Weather History for KIND - December, 2012

Change the Weather History Date:

Monday, December 3, 2012

  Actual Average Record
Temperature  
Mean Temperature 64 °F 36 °F  
Max Temperature 69 °F 43 °F 69 °F (1982)
Min Temperature 58 °F 28 °F -2 °F (1929)
Degree Days  
Heating Degree Days 1 29  
Month to date heating degree days 22 86  
Since 1 July heating degree days 1185 1128  
Cooling Degree Days 0 0  
Month to date cooling degree days 0 0  
Year to date cooling degree days 1534 1066  
Growing Degree Days 13 (Base 50)    
Moisture  
Dew Point 58 °F    
Average Humidity 82    
Maximum Humidity 100    
Minimum Humidity 63    
Precipitation  
Precipitation 0.02 in 0.10 in 3.46 in (1873)
Month to date precipitation 0.28 0.31  
Year to date precipitation 35.70 39.58  
Snow  
Snow 0.00 in 0.10 in 3.00 in (1957)
Month to date snowfall 0.0 0.3  
Since 1 July snowfall 0.2 1.4  
Snow Depth 0.00 in    
Sea Level Pressure  
Sea Level Pressure 30.05 in    
Wind  
Wind Speed 13 mph (South)    
Max Wind Speed 25 mph    
Max Gust Speed 30 mph    
Visibility 6 miles    
Events Fog , Rain    
T = Trace of Precipitation, MM = Missing Value Source: NWS Daily Summary

Daily Weather History Graph

Daily Weather History Graph

Search for Another Location

Airport or City:

Astronomy

Dec. 03, 2012 Rise Set
Actual Time 7:49 AM EST 5:20 PM EST
Civil Twilight 7:19 AM EST 5:50 PM EST
Nautical Twilight 6:45 AM EST 6:24 PM EST
Astronomical Twilight 6:13 AM EST 6:56 PM EST
Moon 10:06 PM EST (12/3) 11:12 AM EST (12/3)
Length of Visible Light 10h 31m
Length of Day
9h 31m
Waning Gibbous, 78% of the Moon is Illuminated
Dec 3
Waning Gibbous
Dec 6
Last Quarter
Dec 13
New
Dec 20
First Quarter
Dec 28
Full

Hourly Weather History & Observations

Time (EST) Temp. Dew Point Humidity Pressure Visibility Wind Dir Wind Speed Gust Speed Precip Events Conditions
12:19 AM 57.2 °F 57.2 °F 100% 30.10 in 2.0 mi South 6.9 mph - N/A   Overcast
12:38 AM 57.2 °F 57.2 °F 100% 30.10 in 1.8 mi South 5.8 mph - N/A   Overcast
12:54 AM 57.9 °F 57.9 °F 100% 30.10 in 1.5 mi South 6.9 mph - 0.00 in   Light Drizzle
1:02 AM 57.2 °F 57.2 °F 100% 30.10 in 0.8 mi South 4.6 mph - 0.00 in   Light Drizzle
1:54 AM 57.9 °F 57.9 °F 100% 30.09 in 0.5 mi South 8.1 mph - 0.00 in Fog Light Drizzle
2:09 AM 57.2 °F 57.2 °F 100% 30.08 in 1.2 mi South 10.4 mph - 0.00 in   Overcast
2:25 AM 57.2 °F 57.2 °F 100% 30.08 in 2.5 mi South 6.9 mph - 0.00 in   Overcast
2:54 AM 59.0 °F 59.0 °F 100% 30.09 in 3.0 mi South 5.8 mph - 0.00 in   Overcast
3:54 AM 59.0 °F 57.9 °F 96% 30.08 in 4.0 mi South 8.1 mph - N/A   Overcast
4:13 AM 59.0 °F 57.2 °F 94% 30.08 in 4.0 mi SSW 8.1 mph - N/A   Overcast
4:54 AM 59.0 °F 57.9 °F 96% 30.08 in 5.0 mi South 8.1 mph - N/A   Overcast
5:23 AM 59.0 °F 59.0 °F 100% 30.08 in 3.0 mi South 6.9 mph - 0.02 in Rain Light Rain
5:54 AM 59.0 °F 59.0 °F 100% 30.08 in 4.0 mi South 5.8 mph - 0.02 in   Overcast
6:42 AM 60.8 °F 59.0 °F 94% 30.08 in 2.5 mi South 8.1 mph - 0.00 in   Light Drizzle
6:54 AM 59.0 °F 59.0 °F 100% 30.08 in 2.5 mi South 8.1 mph - 0.00 in   Light Drizzle
7:40 AM 60.8 °F 59.0 °F 94% 30.09 in 2.5 mi South 10.4 mph - 0.00 in   Overcast
7:54 AM 60.1 °F 59.0 °F 96% 30.09 in 2.5 mi South 9.2 mph - 0.00 in   Overcast
8:09 AM 60.8 °F 59.0 °F 94% 30.08 in 3.0 mi South 9.2 mph - N/A   Overcast
8:54 AM 60.1 °F 59.0 °F 96% 30.08 in 4.0 mi South 9.2 mph - N/A   Overcast
9:47 AM 60.8 °F 59.0 °F 94% 30.08 in 6.0 mi South 11.5 mph - N/A   Overcast
9:54 AM 60.8 °F 59.0 °F 94% 30.08 in 6.0 mi South 12.7 mph - N/A   Overcast
10:10 AM 60.8 °F 59.0 °F 94% 30.08 in 7.0 mi South 13.8 mph - N/A   Overcast
10:54 AM 62.1 °F 60.1 °F 93% 30.07 in 10.0 mi South 12.7 mph - N/A   Overcast
11:54 AM 64.9 °F 60.1 °F 84% 30.04 in 10.0 mi SSW 16.1 mph - N/A   Mostly Cloudy
12:54 PM 66.9 °F 60.1 °F 79% 30.02 in 10.0 mi SSW 17.3 mph 23.0 mph N/A   Mostly Cloudy
1:54 PM 66.9 °F 59.0 °F 76% 30.01 in 10.0 mi SSW 19.6 mph - N/A   Mostly Cloudy
2:43 PM 68.0 °F 59.0 °F 73% 30.00 in 10.0 mi SSW 20.7 mph 27.6 mph N/A   Mostly Cloudy
2:54 PM 68.0 °F 59.0 °F 73% 29.99 in 10.0 mi SSW 16.1 mph 29.9 mph N/A   Mostly Cloudy
3:54 PM 68.0 °F 57.9 °F 70% 29.99 in 10.0 mi South 17.3 mph 24.2 mph N/A   Mostly Cloudy
4:54 PM 68.0 °F 55.9 °F 65% 29.99 in 10.0 mi SSW 19.6 mph 28.8 mph N/A   Mostly Cloudy
5:54 PM 66.0 °F 55.0 °F 68% 29.99 in 10.0 mi South 15.0 mph - N/A   Mostly Cloudy
6:54 PM 66.0 °F 55.0 °F 68% 29.99 in 10.0 mi South 18.4 mph - N/A   Overcast
7:54 PM 64.9 °F 55.0 °F 70% 30.00 in 10.0 mi South 15.0 mph - N/A   Overcast
8:54 PM 63.0 °F 55.0 °F 75% 30.00 in 10.0 mi South 12.7 mph - N/A   Overcast
9:54 PM 63.0 °F 54.0 °F 72% 30.01 in 10.0 mi SSW 11.5 mph - N/A   Overcast
10:54 PM 63.0 °F 53.1 °F 70% 30.01 in 10.0 mi South 13.8 mph - N/A   Overcast
11:54 PM 62.1 °F 52.0 °F 70% 30.01 in 10.0 mi South 13.8 mph 21.9 mph N/A   Mostly Cloudy